Slayton, MN

6:28 AM CST on February 19, 2017 (GMT -0600)
Slayton

Weather History for KDVP - January, 2013

Change the Weather History Date:

Friday, January 18, 2013

  Actual Average (KOTG) Record (KOTG)
Temperature  
Mean Temperature 32 °F -  
Max Temperature 40 °F 21 °F 42 °F (1973)
Min Temperature 24 °F 6 °F -21 °F (1984)
Degree Days  
Heating Degree Days 33    
Moisture  
Dew Point 28 °F    
Average Humidity 81    
Maximum Humidity 96    
Minimum Humidity 61    
Precipitation  
Precipitation 0.00 in - - ()
Sea Level Pressure  
Sea Level Pressure 29.87 in    
Wind  
Wind Speed 15 mph (SW)    
Max Wind Speed 22 mph    
Max Gust Speed 26 mph    
Visibility 10 miles    
Events      
Averages and records for this station are not official NWS values.
T = Trace of Precipitation, MM = Missing Value Source: NWS Daily Summary

Daily Weather History Graph

Daily Weather History Graph

Search for Another Location

Airport or City:

Trip Planner

Search our weather history database for the weather conditions in past years. The results will help you decide how hot, cold, wet, or windy it might be!

Date:

Astronomy

Jan. 18, 2013 Rise Set
Actual Time 7:52 AM CST 5:15 PM CST
Civil Twilight 7:20 AM CST 5:46 PM CST
Nautical Twilight 6:45 AM CST 6:22 PM CST
Astronomical Twilight 6:10 AM CST 6:56 PM CST
Moon 11:14 AM CST (1/18) 12:22 AM CST (1/18)
Length of Visible Light 10h 26m
Length of Day
9h 22m
Waxing Crescent, 47% of the Moon is Illuminated
Jan 18
Waxing Crescent
Jan 18
First Quarter
Jan 26
Full
Feb 3
Last Quarter
Feb 10
New

Hourly Weather History & Observations

Time (CST) Temp. Windchill Dew Point Humidity Pressure Visibility Wind Dir Wind Speed Gust Speed Precip Events Conditions
12:15 AM 24.8 °F 14.0 °F 23.9 °F 96% 30.15 in 7.0 mi SE 11.5 mph - N/A   Mostly Cloudy
12:35 AM 25.2 °F 13.3 °F 23.9 °F 95% 30.14 in 10.0 mi SSE 13.8 mph - N/A   Overcast
12:55 AM 25.2 °F 13.3 °F 24.3 °F 96% 30.11 in 7.0 mi SSE 13.8 mph - N/A   Overcast
1:15 AM 25.3 °F 13.6 °F 24.3 °F 96% 30.10 in 7.0 mi SSE 13.8 mph - N/A   Overcast
1:35 AM 25.5 °F 12.9 °F 24.6 °F 96% 30.08 in 7.0 mi SSE 16.1 mph - N/A   Mostly Cloudy
1:54 AM 25.9 °F 13.3 °F 25.0 °F 96% 30.07 in 7.0 mi South 16.1 mph - N/A   Scattered Clouds
2:15 AM 28.0 °F 16.5 °F 26.4 °F 94% 30.05 in 10.0 mi South 15.0 mph 20.7 mph N/A   Clear
2:35 AM 28.9 °F 16.5 °F 27.1 °F 93% 30.03 in 10.0 mi South 18.4 mph 23.0 mph N/A   Clear
2:55 AM 28.8 °F 16.6 °F 27.1 °F 94% 30.02 in 7.0 mi South 17.3 mph - N/A   Clear
3:15 AM 28.9 °F 16.9 °F 27.3 °F 94% 30.01 in 7.0 mi South 17.3 mph 23.0 mph N/A   Clear
3:35 AM 28.9 °F 16.1 °F 27.3 °F 94% 29.99 in 7.0 mi South 19.6 mph - N/A   Clear
3:55 AM 28.9 °F 15.4 °F 27.3 °F 94% 29.98 in 7.0 mi SSW 21.9 mph 25.3 mph N/A   Clear
4:15 AM 28.9 °F 15.4 °F 27.3 °F 94% 29.96 in 7.0 mi SSW 21.9 mph 26.5 mph N/A   Clear
4:35 AM 29.3 °F 16.2 °F 27.5 °F 93% 29.95 in 7.0 mi SSW 20.7 mph - N/A   Clear
4:55 AM 29.3 °F 17.0 °F 27.3 °F 92% 29.94 in 7.0 mi SSW 18.4 mph - N/A   Clear
5:15 AM 29.3 °F 17.0 °F 27.1 °F 92% 29.93 in 7.0 mi SSW 18.4 mph - N/A   Clear
5:35 AM 29.3 °F 16.6 °F 27.0 °F 91% 29.92 in 10.0 mi SSW 19.6 mph - N/A   Clear
5:55 AM 29.3 °F 17.0 °F 27.0 °F 91% 29.91 in 10.0 mi SSW 18.4 mph - N/A   Clear
6:14 AM 29.3 °F 18.6 °F 26.6 °F 90% 29.90 in 10.0 mi SSW 13.8 mph - N/A   Clear
6:35 AM 29.3 °F 17.3 °F 26.6 °F 90% 29.88 in 10.0 mi SSW 17.3 mph 20.7 mph N/A   Clear
6:55 AM 29.5 °F 16.5 °F 26.6 °F 89% 29.87 in 10.0 mi SW 20.7 mph - N/A   Clear
7:15 AM 29.7 °F 17.4 °F 26.6 °F 88% 29.86 in 10.0 mi SW 18.4 mph 25.3 mph N/A   Clear
7:35 AM 29.3 °F 19.1 °F 26.4 °F 89% 29.87 in 10.0 mi SW 12.7 mph - N/A   Clear
7:55 AM 29.8 °F 18.4 °F 26.4 °F 87% 29.87 in 10.0 mi SW 16.1 mph - N/A   Clear
8:15 AM 29.1 °F 20.0 °F 25.7 °F 87% 29.87 in 10.0 mi SSW 10.4 mph 17.3 mph N/A   Clear
8:35 AM 28.9 °F 18.6 °F 25.7 °F 88% 29.86 in 10.0 mi SSW 12.7 mph - N/A   Clear
8:55 AM 29.5 °F 18.8 °F 26.1 °F 87% 29.85 in 10.0 mi SSW 13.8 mph - N/A   Clear
9:15 AM 30.7 °F 19.6 °F 26.4 °F 84% 29.85 in 10.0 mi SW 16.1 mph - N/A   Clear
9:35 AM 31.6 °F 20.7 °F 26.6 °F 82% 29.85 in 10.0 mi SW 16.1 mph - N/A   Clear
9:55 AM 32.0 °F 21.6 °F 27.3 °F 83% 29.85 in 10.0 mi SW 15.0 mph - N/A   Clear
10:16 AM 32.7 °F 22.5 °F 27.3 °F 81% 29.85 in 10.0 mi SW 15.0 mph - N/A   Clear
10:34 AM 34.3 °F 24.6 °F 27.3 °F 76% 29.84 in 10.0 mi SW 15.0 mph - N/A   Clear
10:55 AM 35.6 °F 24.5 °F 27.5 °F 72% 29.83 in 10.0 mi WSW 20.7 mph - N/A   Clear
11:15 AM 37.0 °F 26.2 °F 27.0 °F 67% 29.82 in 10.0 mi WSW 21.9 mph 25.3 mph N/A   Clear
11:35 AM 37.8 °F 28.0 °F 27.3 °F 66% 29.81 in 10.0 mi WSW 18.4 mph 25.3 mph N/A   Clear
11:55 AM 39.2 °F 30.8 °F 27.3 °F 62% 29.80 in 10.0 mi SW 15.0 mph - N/A   Clear
12:15 PM 39.9 °F 31.1 °F 27.7 °F 62% 29.79 in 10.0 mi WSW 17.3 mph - N/A   Clear
12:35 PM 39.7 °F 30.9 °F 28.0 °F 63% 29.79 in 10.0 mi WSW 17.3 mph 20.7 mph N/A   Clear
12:55 PM 40.5 °F 33.2 °F 27.9 °F 61% 29.79 in 10.0 mi West 12.7 mph 20.7 mph N/A   Clear
1:15 PM 39.7 °F 31.5 °F 27.7 °F 62% 29.78 in 10.0 mi WSW 15.0 mph 21.9 mph N/A   Clear
1:35 PM 39.6 °F 31.7 °F 28.0 °F 63% 29.78 in 10.0 mi West 13.8 mph 18.4 mph N/A   Clear
1:54 PM 39.7 °F 31.2 °F 28.2 °F 63% 29.77 in 10.0 mi West 16.1 mph 20.7 mph N/A   Clear
2:15 PM 40.3 °F 31.3 °F 28.8 °F 63% 29.78 in 10.0 mi West 18.4 mph 24.2 mph N/A   Clear
2:35 PM 40.5 °F 30.9 °F 28.9 °F 64% 29.77 in 10.0 mi West 20.7 mph 26.5 mph N/A   Clear
2:55 PM 40.3 °F 31.6 °F 29.3 °F 65% 29.78 in 10.0 mi West 17.3 mph 23.0 mph N/A   Clear
3:15 PM 40.1 °F 31.0 °F 29.3 °F 65% 29.77 in 10.0 mi West 18.4 mph 26.5 mph N/A   Clear
3:35 PM 40.1 °F 31.6 °F 29.7 °F 66% 29.78 in 10.0 mi West 16.1 mph 23.0 mph N/A   Clear
3:55 PM 39.4 °F 31.1 °F 30.2 °F 70% 29.80 in 10.0 mi West 15.0 mph - N/A   Clear
4:15 PM 39.2 °F 30.5 °F 30.2 °F 70% 29.79 in 10.0 mi WSW 16.1 mph - N/A   Clear
4:35 PM 38.5 °F 30.3 °F 30.7 °F 74% 29.81 in 10.0 mi West 13.8 mph - N/A   Clear
4:55 PM 37.8 °F 29.8 °F 30.4 °F 75% 29.80 in 10.0 mi West 12.7 mph 18.4 mph N/A   Clear
5:15 PM 37.4 °F 32.1 °F 30.2 °F 75% 29.81 in 10.0 mi West 6.9 mph - N/A   Clear
5:35 PM 36.5 °F 29.7 °F 30.2 °F 78% 29.81 in 10.0 mi WSW 9.2 mph - N/A   Clear
5:55 PM 36.3 °F 30.8 °F 30.4 °F 79% 29.82 in 10.0 mi West 6.9 mph - N/A   Clear
6:14 PM 36.7 °F 30.5 °F 29.7 °F 76% 29.82 in 10.0 mi West 8.1 mph - N/A   Clear
6:35 PM 35.8 °F 28.8 °F 29.8 °F 79% 29.83 in 10.0 mi West 9.2 mph - N/A   Clear
6:55 PM 36.0 °F 29.0 °F 30.2 °F 80% 29.83 in 10.0 mi West 9.2 mph - N/A   Clear
7:15 PM 35.6 °F 28.6 °F 30.7 °F 82% 29.84 in 10.0 mi West 9.2 mph - N/A   Clear
7:35 PM 35.1 °F 27.9 °F 31.1 °F 85% 29.83 in 10.0 mi West 9.2 mph - N/A   Clear
7:55 PM 35.2 °F 28.1 °F 30.9 °F 84% 29.83 in 10.0 mi West 9.2 mph - N/A   Clear
8:15 PM 34.9 °F 26.6 °F 30.9 °F 85% 29.83 in 10.0 mi WSW 11.5 mph - N/A   Clear
8:35 PM 35.1 °F 27.9 °F 30.7 °F 84% 29.81 in 10.0 mi WSW 9.2 mph 16.1 mph N/A   Clear
8:55 PM 36.0 °F 28.5 °F 30.6 °F 81% 29.81 in 10.0 mi West 10.4 mph - N/A   Clear
9:34 PM 37.2 °F 29.6 °F 30.2 °F 76% 29.81 in 10.0 mi West 11.5 mph - N/A   Clear
9:55 PM 36.7 °F 29.9 °F 30.2 °F 77% 29.81 in 10.0 mi WSW 9.2 mph - N/A   Clear
10:15 PM 35.8 °F 28.8 °F 30.6 °F 81% 29.81 in 10.0 mi SW 9.2 mph - N/A   Clear
10:34 PM 35.8 °F 30.9 °F 30.7 °F 82% 29.80 in 10.0 mi WSW 5.8 mph - N/A   Clear
10:55 PM 37.4 °F 30.3 °F 30.2 °F 75% 29.79 in 10.0 mi WSW 10.4 mph - N/A   Mostly Cloudy
11:15 PM 37.0 °F 28.5 °F 30.2 °F 76% 29.78 in 10.0 mi WSW 13.8 mph - N/A   Mostly Cloudy
11:35 PM 36.3 °F 28.4 °F 30.7 °F 80% 29.78 in 10.0 mi SW 11.5 mph - N/A   Mostly Cloudy
11:55 PM 33.8 °F 26.4 °F 30.7 °F 89% 29.78 in 10.0 mi SW 9.2 mph - N/A   Scattered Clouds